Regional Weather Roundup
Issued by NWS

Home | Current Version | Previous Version | Graphics & Text | Print | Product List | Glossary On
Versions: 1 2 3 4 5 6 7 8 9 10 11 12 13 14 15 16 17 18 19 20 21 22 23 24 25 26 27 28
000
ASUS45 KPSR 272010
RWRAZ

ARIZONA HOURLY REGIONAL WEATHER ROUNDUP
NATIONAL WEATHER SERVICE PHOENIX AZ
100 PM MST WED JUL 27 2016

NOTE: FAIR INDICATES FEW OR NO CLOUDS BELOW 12,000 FEET WITH NO
SIGNIFICANT WEATHER AND/OR OBSTRUCTIONS TO VISIBILITY.

AZZ001>003-036-272100-
NORTHWEST ARIZONA

CITY           SKY/WX    TMP DP  RH WIND       PRES   REMARKS
BULLHEAD CITY  SUNNY    113  54  14 SW10G17   29.77F HX 111
KINGMAN        SUNNY    105  50  15 SW15G23   30.02F HX 102
$$

AZZ004>008-015-016-018-272100-
NORTH CENTRAL ARIZONA

CITY           SKY/WX    TMP DP  RH WIND       PRES   REMARKS
GRAND CANYON   MOSUNNY   93  24   8 NE9       30.31F
WILLIAMS       MOSUNNY   86  39  19 VRB3G14   30.38F
PRESCOTT       MOSUNNY   95  43  16 VRB5      30.16F
FLAGSTAFF      MOSUNNY   86  40  19 VRB3      30.32F
PAYSON         MOSUNNY   93  52  24 SW8G17    30.18F
PAGE           SUNNY    101  38  11 VRB6      30.07F
$$

AZZ009>014-017-272100-
NORTHEAST ARIZONA

CITY           SKY/WX    TMP DP  RH WIND       PRES   REMARKS
WINSLOW        SUNNY     98  43  15 MISG      30.14F
SAINT JOHNS    MOSUNNY   93  41  16 VRB3G25   30.18F
WINDOW ROCK    MOSUNNY   90  37  15 VRB5      30.29F
SHOW LOW       MOSUNNY   88  36  15 N12G25    30.26F
$$

AZZ023-272100-
GREATER PHOENIX AREA

CITY           SKY/WX    TMP DP  RH WIND       PRES   REMARKS
PHOENIX        MOSUNNY  105  60  22 NW5       29.82F HX 106
BUCKEYE          N/A    106  57  20 S9        29.84F HX 105
GLENDALE       MOSUNNY  108  57  19 W6        29.85F HX 107
LUKE AFB       MOSUNNY  106  58  21 SW14      29.82F HX 106
DEER VALLEY    SUNNY    102  58  23 SW7G17    29.85F HX 102
SCOTTSDALE     SUNNY    104  58  21 SW6       29.87F HX 104
MESA-GATEWAY   MOSUNNY  102  61  25 SW7       29.87F HX 103
CHANDLER       MOSUNNY  104  61  24 CALM      29.84F HX 105
$$

AZZ027-028-272100-
SOUTHWEST MARICOPA COUNTY AND PINAL COUNTY

CITY           SKY/WX    TMP DP  RH WIND       PRES   REMARKS
CASA GRANDE    SUNNY    104  61  24 W6        29.89F HX 105
GILA BEND      MOSUNNY  108  56  18 SW9       29.81F HX 107
$$

AZZ503-504-507>509-272100-
SOUTHEAST ARIZONA

CITY           SKY/WX    TMP DP  RH WIND       PRES   REMARKS
TUCSON         SUNNY    102  60  25 N9        29.98F HX 103
DAVIS-MONTHAN  SUNNY     97  61  29 W7        29.96F
RYAN FIELD     SUNNY    100  59  25 N10G17    29.96F HX 100
NOGALES        PTSUNNY   89  58  34 VRB6      30.08F
SIERRA VISTA   MOSUNNY   89  55  31 VRB2      30.14F
DOUGLAS        MOSUNNY   89  62  40 W9        30.09F
SAFFORD        SUNNY     98  57  25 VRB3      29.95F
$$

AZZ020-021-025-026-031-272100-
SOUTHWEST ARIZONA

CITY           SKY/WX    TMP DP  RH WIND       PRES   REMARKS
YUMA           MOSUNNY  109  62  21 S12       29.78F HX 112
$$

CAZ031-033-041-043-047-048-061-272100-
SOUTHERN CALIFORNIA

CITY           SKY/WX    TMP DP  RH WIND       PRES   REMARKS
DOWNTOWN L.A.  SUNNY     87  55  33 CALM      29.90F
L.A. AIRPORT   MOSUNNY   79  65  62 W10       29.92F
SAN DIEGO      MOSUNNY   80  67  64 NW8       29.94S
BURBANK        SUNNY     92  55  28 S7        29.91F
ONTARIO        MOSUNNY   97  47  18 SW10      29.92F
RIVERSIDE      MOSUNNY   98  43  15 W7        29.91F
PALM SPRINGS   MOSUNNY  109  53  15 VRB6      29.80F HX 107
EL CENTRO NAS  MOSUNNY  109  55  17 SE10      29.77F HX 108
IMPERIAL       SUNNY    112  65  22 SE10G21   29.75F HX 117
BLYTHE         SUNNY    111  57  17 S15       29.78F HX 111
NEEDLES        PTSUNNY  115  53  13 SW7       29.79F HX 113
$$

NVZ020-UTZ003-272100-
SOUTHERN NEVADA-UTAH

CITY           SKY/WX    TMP DP  RH WIND       PRES   REMARKS
LAS VEGAS      MOSUNNY  110  40   9 CALM      29.86F HX 104
SALT LAKE CITY MOSUNNY   99  30   9 NW14      30.11F
$$

NMZ009-TXZ055-272100-
NEW MEXICO-WEST TEXAS

CITY           SKY/WX    TMP DP  RH WIND       PRES   REMARKS
ALBUQUERQUE    MOSUNNY   88  53  30 VRB3      30.17F
EL PASO        MOSUNNY   90  57  32 N6        30.07F
$$


........................KEY........................
SKY/WX - SKY CONDITION/WEATHER
TMP    - TEMPERATURE IN FAHRENHEIT
DP     - DEW POINT IN FAHRENHEIT
RH     - RELATIVE HUMIDITY IN PERCENT
WIND   - DIRECTION AND SPEED IN MILES PER HOUR (MPH)
VRB    - VARIABLE WIND DIRECTION
PRES   - MEAN SEA LEVEL PRESSURE IN INCHES OF MERCURY
         F - FALLING PRESSURE   R - RISING PRESSURE
         S - STEADY PRESSURE
VSB    - VISIBILITY IN MILES
HX     - HEAT INDEX IN FAHRENHEIT
WCI    - WIND CHILL INDEX IN FAHRENHEIT
TC     - TEMPERATURE IN CELSIUS WHICH IS ALSO KNOWN AS
         TEMPERATURE IN CENTIGRADE
AFB    - AIR FORCE BASE
         LUKE AFB IS LUKE AIR FORCE BASE
         DAVIS-MONTHAN IS DAVIS-MONTHAN AIR FORCE BASE
NAS    - NAVAL AIR STATION
         EL CENTRO NAS IS EL CENTRO NAVAL AIR STATION
N/A    - NOT AVAILABLE





USA.gov is the U.S. government's official web portal to all federal, state and local government web resources and services.